Regional Weather Roundup
Issued by NWS

Home | Current Version | Previous Version | Graphics & Text | Print | Product List | Glossary On
Versions: 1 2 3 4 5 6 7 8 9 10 11 12 13 14 15 16 17 18 19 20 21 22 23 24 25 26 27 28 29 30 31 32 33 34 35 36 37 38 39 40 41 42 43 44 45 46 47 48 49 50
000
ASUS43 KOAX 231702
RWRNE

WEATHER ROUNDUP FOR NEBRASKA
NATIONAL WEATHER SERVICE OMAHA NE
1200 PM CDT TUE SEP 23 2014

NOTES: SATELLITE DATA IS BEING USED TO AUGMENT CLOUD COVER ABOVE
       12000 FEET.
       "FAIR" INDICATES FEW OR NO CLOUDS BELOW 12,000 FEET WITH NO
       SIGNIFICANT WEATHER AND/OR OBSTRUCTIONS TO VISIBILITY.

  * THESE STATIONS DO NOT REPORT WEATHER SUCH AS RAIN...SNOW OR FOG.

NEZ001>004-019>022-054>056-231800-
NEBRASKA PANHANDLE

CITY           SKY/WX    TMP DP  RH WIND       PRES   REMARKS
SCOTTSBLUFF    SUNNY     74  53  48 NW8       30.03F
ALLIANCE       SUNNY     76  48  37 W17       30.00S
CHADRON        CLOUDY    71  53  52 NW14G21   29.97R
KIMBALL        SUNNY     74  43  32 W25G31    30.08S
SIDNEY         SUNNY     77  49  37 W18       30.07S
$$

NEZ057>060-069>072-079>082-231800-
SOUTHWEST NEBRASKA

CITY           SKY/WX    TMP DP  RH WIND       PRES   REMARKS
NORTH PLATTE   SUNNY     72  59  63 S13       30.00F
IMPERIAL       SUNNY     78  53  41 NW14      30.02F
LEXINGTON      PTSUNNY   68  59  73 S14       30.04S
MCCOOK         SUNNY     70  60  70 S8        30.03F
OGALLALA       SUNNY     77  53  42 W10       30.01S
$$

NEZ005>010-023>029-035>040-094-231800-
NORTH CENTRAL NEBRASKA

CITY           SKY/WX    TMP DP  RH WIND       PRES   REMARKS
VALENTINE      MOSUNNY   69  58  67 S17G24    29.93F
AINSWORTH      CLOUDY    63  57  80 S17       29.97F
BROKEN BOW     CLOUDY    63  56  78 S13       30.02F
O`NEILL        CLOUDY    60  58  92 S14       30.04F
ORD            CLOUDY    61  56  83 S12G22    30.03F
THEDFORD       SUNNY     71  58  64 S14       29.98F
$$

NEZ041-046>049-061>064-073>077-083>087-231800-
SOUTH CENTRAL NEBRASKA

CITY           SKY/WX    TMP DP  RH WIND       PRES   REMARKS
GRAND ISLAND   CLOUDY    64  56  75 S17       30.08F
AURORA         CLOUDY    63  56  78 S14       30.10F
HASTINGS       CLOUDY    62  53  72 S15G22    30.09S
HEBRON         CLOUDY    60  56  85 S10       30.12F
HOLDREGE       MOSUNNY   65  53  65 S18       30.06S
KEARNEY *      CLOUDY    63  55  77 S16G24    30.07S
$$

NEZ011>018-030>034-042>045-231800-
NORTHEAST NEBRASKA

CITY           SKY/WX    TMP DP  RH WIND       PRES   REMARKS
NORFOLK        CLOUDY    60  58  92 SE10      30.10F
ALBION         CLOUDY    59  56  92 S16       30.08F
BLAIR          LGT RAIN  60  57  88 SE5       30.17S
COLUMBUS *     CLOUDY    59  55  88 S12       30.13F
FREMONT        LGT RAIN  59  57  94 SE9G17    30.16S
TEKAMAH        HVY RAIN  60  57  89 S12       30.17S FOG
WAYNE          LGT RAIN  58  56  92 SE15G22   30.12F
$$

NEZ050>053-065>068-078-088>093-231800-
SOUTHEAST NEBRASKA

CITY           SKY/WX    TMP DP  RH WIND       PRES   REMARKS
LINCOLN        CLOUDY    63  57  81 S16       30.15F
OMAHA EPPLEY   CLOUDY    62  56  80 SE8       30.18S
BEATRICE       PTSUNNY   64  56  76 S13       30.14F
FALLS CITY     CLOUDY    69  55  60 S12       30.18F
NEBRASKA CITY  LGT RAIN  65  50  57 S15       30.18F
PLATTSMOUTH    CLOUDY    61  55  79 SE8       30.18R
$$

NEZ044-045-051>053-067-231800-
OMAHA AREA

CITY           SKY/WX    TMP DP  RH WIND       PRES   REMARKS
OMAHA EPPLEY   CLOUDY    62  56  80 SE8       30.18S
BLAIR          LGT RAIN  60  57  88 SE5       30.17S
FREMONT        LGT RAIN  59  57  94 SE9G17    30.16S
MILLARD        RAIN      61  56  85 SE6       30.17R
OFFUTT AFB     LGT RAIN  63  60  91 SE10      30.17S
PLATTSMOUTH    CLOUDY    61  55  79 SE8       30.18R
WAHOO          RAIN      58  55  90 SE12      30.15F
$$


USA.gov is the U.S. government's official web portal to all federal, state and local government web resources and services.